Regional Weather Roundup
Issued by NWS

Home | Current Version | Previous Version | Graphics & Text | Print | Product List | Glossary On
Versions: 1 2 3 4 5 6 7 8 9 10 11 12 13 14 15 16 17 18 19 20 21 22 23 24 25 26 27 28 29 30 31 32 33 34 35 36 37 38 39 40 41 42 43 44 45 46 47 48 49 50
226
ASUS45 KBOI 131010
RWRID

IDAHO REGIONAL WEATHER ROUNDUP
NATIONAL WEATHER SERVICE BOISE ID
300 AM MST SAT FEB 13 2016

NOTE: "FAIR" INDICATES FEW OR NO CLOUDS BELOW 12000 FEET
WITH NO SIGNIFICANT WEATHER AND/OR OBSTRUCTIONS TO VISIBILITY

IDZ012-014-131100-
SOUTHWEST IDAHO


CITY           SKY/WX    TMP DP  RH WIND       PRES   REMARKS
BOISE          PTCLDY    34  32  92 CALM      30.21R FOG
CALDWELL       PTCLDY    31  29  92 CALM      30.23S FOG
MOUNTAIN HOME  CLOUDY    34  30  83 CALM      30.18R
$$

IDZ016-017-131100-
SOUTHCENTRAL IDAHO


CITY           SKY/WX    TMP DP  RH WIND       PRES   REMARKS
BURLEY         CLOUDY    31  28  89 CALM      30.17R
JEROME         CLOUDY    32  26  78 NE10      30.18R WCI  24
TWIN FALLS     CLOUDY    41  26  55 S14       30.16S
$$

IDZ019>023-131100-
SOUTHEAST IDAHO


CITY           SKY/WX    TMP DP  RH WIND       PRES   REMARKS
IDAHO FALLS    CLOUDY    24  21  88 N5        30.18R WCI  18
POCATELLO      CLOUDY    28  25  88 CALM      30.18F
REXBURG        CLOUDY    27  25  92 CALM      30.18R FOG
$$

IDZ006-010-011-018-031-032-131100-
CENTRAL IDAHO MOUNTAINS


CITY           SKY/WX    TMP DP  RH WIND       PRES   REMARKS
MCCALL         CLOUDY    35  29  78 NE8       30.13S WCI  29
HAILEY         CLOUDY    34  30  86 NW5       30.18F WCI  30
STANLEY          N/A     39  27  62 S7        30.14F WCI  34
SALMON         CLOUDY    28  27  93 E6        30.09F WCI  22
CHALLIS        MOCLDY    24  21  88 CALM      30.11S
$$

IDZ002-004-006-007-026-131100-
NORTHERN IDAHO


CITY           SKY/WX    TMP DP  RH WIND       PRES   REMARKS
LEWISTON       CLOUDY    46  40  79 S8        30.17R
LOWELL           N/A     41  40  96 CALM      30.22R
COEUR D`ALENE  CLOUDY    43  39  87 SW13      30.08R
MULLAN PASS    LGT SNOW  28  27  96 VRB7      30.02S FOG     WCI  21
$$




USA.gov is the U.S. government's official web portal to all federal, state and local government web resources and services.